Skip Page Navigation
NASA JPL Caltech
NASA Logo - Jet Propulsion Laboratory + View the NASA Portal
+ Center for Near-Earth Object Studies
JPL Home Earth Solar System Stars & Galaxies Technology
JPL Solar System Dynamics
BODIES ORBITS EPHEMERIDES TOOLS PHYSICAL DATA DISCOVERY FAQ SITE MAP
IMPORTANT: The SSD Announcement email list is now available. Major changes are coming in the near future, including possible hostname and/or URL changes. To be notified of such changes, subscribe to this email list.

Please visit this page for more details.


JPL Small-Body Database Browser
Search: [ help ]  
39334 (2002 AV10)
Classification: Main-belt Asteroid          SPK-ID: 2039334
Ephemeris | Orbit Diagram | Orbital Elements | Mission Design | Physical Parameters | Discovery Circumstances | Close-Approach Data ]

[ show orbit diagram ]
Orbital Elements at Epoch 2458600.5 (2019-Apr-27.0) TDB
Reference: JPL 20 (heliocentric ecliptic J2000)
 Element Value Uncertainty (1-sigma)   Units 
e .293253561061301 3.8053e-08  
a 2.629476527137929 1.2138e-08 au
q 1.858373171827629 9.8241e-08 au
i 5.087725021081823 5.7391e-06 deg
node 154.1137571665093 4.248e-05 deg
peri 264.9076691881867 4.3785e-05 deg
M 61.32993998527578 1.1048e-05 deg
tp 2458335.178518736070
(2018-Aug-04.67851874)
4.7047e-05 TDB
period 1557.407903512486
4.26
1.0784e-05
2.952e-08
d
yr
n .2311533151899879 1.6006e-09 deg/d
Q 3.400579882448229 1.5698e-08 au
  Orbit Determination Parameters
   # obs. used (total)      680  
   data-arc span      9680 days (26.50 yr)  
   first obs. used      1992-10-02  
   last obs. used      2019-04-04  
   planetary ephem.      DE431  
   SB-pert. ephem.      SB431-N16  
   condition code      0  
   norm. resid. RMS      .56413  
   source      ORB  
   producer      Otto Matic  
   solution date      2019-Jul-13 02:06:12  

Additional Information
 Earth MOID = .87862 au 
 Jupiter MOID = 1.98525 au 
 T_jup = 3.333 
[ show covariance matrix ]

Ephemeris | Orbit Diagram | Orbital Elements | Mission Design | Physical Parameters | Discovery Circumstances | Close-Approach Data ]

Physical Parameter Table
Parameter Symbol Value Units Sigma Reference Notes
absolute magnitude H 15.5   n/a MPO468232  
diameter diameter 2.644 km 0.164 urn:nasa:pds:neowise_diameters_albedos::2.0[mainbelt] (http://adsabs.harvard.edu/abs/2011ApJ...741...68M)  
geometric albedo albedo 0.210   0.026 urn:nasa:pds:neowise_diameters_albedos::2.0[mainbelt] (http://adsabs.harvard.edu/abs/2011ApJ...741...68M)  

39334 (2002 AV10)          Discovered 2002-Jan-06 by JPL/NEAT at Haleakala
Reference: 20020328/Numbers.arcLast Updated: 2004-04-19

[ show close-approach data ]
Alternate Designations
 2002 AV10 = 1996 PB3 
Ephemeris | Orbit Diagram | Orbital Elements | Mission Design | Physical Parameters | Discovery Circumstances | Close-Approach Data ]
ABOUT SSD CREDITS/AWARDS PRIVACY/COPYRIGHT GLOSSARY LINKS
FirstGov 2020-Jan-28 17:45 UT
(server date/time)  
NASA Home Page
Site Manager:   Ryan S. Park
Webmaster  Alan B. Chamberlin